Change the Weather History Date:

Sunday, September 8, 2013

  Actual Average Record
Temperature  
Mean Temperature 74 °F 71 °F  
Max Temperature 79 °F 77 °F 100 °F (1984)
Min Temperature 69 °F 66 °F 55 °F (1893)
Degree Days  
Heating Degree Days 0 0  
Month to date heating degree days 0 0  
Since 1 July heating degree days 0 1  
Cooling Degree Days 9 6  
Month to date cooling degree days 96 54  
Year to date cooling degree days 575 522  
Growing Degree Days 24 (Base 50)    
Moisture  
Dew Point 65 °F    
Average Humidity 74    
Maximum Humidity 90    
Minimum Humidity 58    
Precipitation  
Precipitation 0.00 in 0.00 in 0.16 in (1982)
Month to date precipitation T 0.01  
Year to date precipitation 3.38 7.09  
Since 1 July precipitation 0.05 0.06  
Snow  
Snow 0.00 in - - ()
Month to date snowfall 0.0  
Year to date snowfall 0.0  
Since 1 July snowfall 0.0  
Snow Depth 0.00 in    
Sea Level Pressure  
Sea Level Pressure 29.83 in    
Wind  
Wind Speed 7 mph (NW)    
Max Wind Speed 15 mph    
Max Gust Speed 18 mph    
Visibility 10 miles    
Events      
T = Trace of Precipitation, MM = Missing Value Source: NWS Daily Summary

Daily Weather History Graph

Daily Weather History Graph

Search for Another Location

Airport or City:

Trip Planner

Search our weather history database for the weather conditions in past years. The results will help you decide how hot, cold, wet, or windy it might be!

Date:

Astronomy

Sep. 08, 2013 Rise Set
Actual Time 6:28 AM PDT 7:03 PM PDT
Civil Twilight 6:03 AM PDT 7:28 PM PDT
Nautical Twilight 5:34 AM PDT 7:57 PM PDT
Astronomical Twilight 5:04 AM PDT 8:27 PM PDT
Moon 9:36 AM PDT (9/8) 8:57 PM PDT (9/8)
Length of Visible Light 13h 25m
Length of Day
12h 35m
Waxing Crescent, 12% of the Moon is Illuminated
Sep 8
Waxing Crescent
Sep 12
First Quarter
Sep 19
Full
Sep 26
Last Quarter
Oct 4
New

Hourly Weather History & Observations

Time (PDT) Temp. Dew Point Humidity Pressure Visibility Wind Dir Wind Speed Gust Speed Precip Events Conditions
12:51 AM 72.0 °F 66.9 °F 84% 29.85 in 8.0 mi NNW 3.5 mph - N/A   Scattered Clouds
1:51 AM 71.1 °F 66.9 °F 87% 29.85 in 8.0 mi WNW 3.5 mph - N/A   Scattered Clouds
2:51 AM 71.1 °F 66.9 °F 87% 29.84 in 8.0 mi WNW 4.6 mph - N/A   Scattered Clouds
3:51 AM 70.0 °F 66.0 °F 87% 29.83 in 7.0 mi NNW 4.6 mph - N/A   Scattered Clouds
4:51 AM 70.0 °F 64.9 °F 84% 29.83 in 10.0 mi NNW 4.6 mph - N/A   Scattered Clouds
5:51 AM 70.0 °F 64.9 °F 84% 29.84 in 10.0 mi North 4.6 mph - N/A   Scattered Clouds
6:51 AM 69.1 °F 64.9 °F 87% 29.85 in 9.0 mi NW 3.5 mph - N/A   Scattered Clouds
7:51 AM 70.0 °F 64.0 °F 81% 29.86 in 10.0 mi NNW 5.8 mph - N/A   Scattered Clouds
8:51 AM 73.0 °F 64.9 °F 76% 29.86 in 10.0 mi NW 4.6 mph - N/A   Scattered Clouds
9:51 AM 77.0 °F 64.0 °F 64% 29.86 in 10.0 mi WNW 3.5 mph - N/A   Scattered Clouds
10:43 AM 77.0 °F 64.4 °F 65% 29.86 in 10.0 mi WNW 9.2 mph - N/A   Scattered Clouds
10:51 AM 77.0 °F 64.0 °F 64% 29.86 in 10.0 mi WNW 10.4 mph - N/A   Scattered Clouds
11:51 AM 78.1 °F 63.0 °F 60% 29.85 in 10.0 mi NW 10.4 mph - N/A   Scattered Clouds
12:51 PM 78.1 °F 64.9 °F 64% 29.84 in 10.0 mi WNW 12.7 mph - N/A   Scattered Clouds
1:51 PM 79.0 °F 64.0 °F 60% 29.82 in 10.0 mi NW 12.7 mph - N/A   Scattered Clouds
2:51 PM 77.0 °F 64.0 °F 64% 29.80 in 10.0 mi WNW 13.8 mph - N/A   Scattered Clouds
3:51 PM 75.9 °F 64.0 °F 67% 29.78 in 9.0 mi NW 11.5 mph - N/A   Scattered Clouds
4:51 PM 73.9 °F 64.0 °F 71% 29.78 in 10.0 mi NW 9.2 mph - N/A   Scattered Clouds
5:51 PM 73.9 °F 64.0 °F 71% 29.78 in 10.0 mi WNW 8.1 mph - N/A   Scattered Clouds
6:51 PM 72.0 °F 63.0 °F 73% 29.78 in 10.0 mi WNW 8.1 mph - N/A   Scattered Clouds
7:51 PM 71.1 °F 64.0 °F 78% 29.79 in 10.0 mi NW 5.8 mph - N/A   Scattered Clouds
8:51 PM 70.0 °F 64.0 °F 81% 29.80 in 9.0 mi WNW 6.9 mph - N/A   Scattered Clouds
9:51 PM 70.0 °F 64.0 °F 81% 29.81 in 9.0 mi North 4.6 mph - N/A   Scattered Clouds
10:51 PM 70.0 °F 64.0 °F 81% 29.82 in 10.0 mi NNW 5.8 mph - N/A   Scattered Clouds
11:51 PM 69.1 °F 64.0 °F 84% 29.81 in 10.0 mi NW 4.6 mph - N/A   Scattered Clouds